If you wish to contribute or participate in the discussions about articles you are invited to join SKYbrary as a registered user

 Actions

Teniente FAP Jaime A De Montreuil Morales Airport

From SKYbrary Wiki

SPEO
Airport
ICAO: SPEO – IATA: CHM
Summary
Name Teniente FAP Jaime A De Montreuil Morales Airport
Region South America and Caribbean
Territory Peru PE.gif
Location Chimbote, Ancash
Serving Chimbote
Elevation 21.031 m
69 ft
69 ft21.031 m
Type medium airport
Coordinates 9° 8' 58.61" S, 78° 31' 25.86" W
Runways
Designator Length Width Surface ROPS
1/19 1800 m5,905.512 ft
30 m98.425 ft
ASP /


METAR
Observation SPEO 202100Z 20015KT 9999 BKN015 25/19 Q1008 RMK BIRD HAZARD RWY 01 TX 25.0 PP000
Station Chimbote
Date/Time 20 February 2020 21:00:00
Wind direction 200°
Wind speed 15 kts
Lowest cloud amount broken clouds
Temperature 25°C
Dew point 19°C
Humidity 69%
QNH 1008 hPa
Weather condition n/a

Airport serving Chimbote, in the Ancash Region of Peru.

Climatology

Mild Desert climate (Köppen climate classification BWh).

Maps

Terrain

Loading map...

Airport Layout

Loading map...


Accidents & Serious Incidents at or in vicinity of SPEO

None on SKYbrary